OBJECT J

Satellite information

Favourite Embed

Satellite Type and Status

UNKNOWNDECAYED

Key statistics

Satellite OBJECT J at a glance.

Uptime

439

Days in orbit

Revolutions

≈ 16.5

Per day

Orbit

SSO

Sun Synchronous Orbit

Inclination

97.4

Latest

Satellite identification and parameters

Extended collection of information and parameters for OBJECT J.

Object identification

Identified? True

Debris? False

Object name: OBJECT J

International designator: 2024-039J

Object number (NORAD): 59059

Object ID (CCSDS): 59059

Country: TO BE DETERMINED/UNKNOWN (TBD)

Current information (Y/N): Y

RCS size: SMALL

Orbital parameters

Decay date: May 13, 2025

Period: 87.442 minutes

Inclination: 97.3845 deg

SMA: 6525.9 km

Apoapsis: 153.886 km

Periapsis: 141.645 km

RAAN: 107.7803 deg

Eccentricy: 0.0009379

Argument of periapsis: 225.9562 deg

Mean anomaly: 134.0969 deg

Mean motion: 16.46804688 rev/day

Mean motion (dot): 0.13625084 rev/day2

B* drag term: 0.00026243 1/REarth

Two-line elements (TLE)

Creation date: May 11, 2025, 2:40 a.m.

Reference frame: TEME

Reference center: EARTH

Epoch: May 10, 2025, 7:09 p.m. UTC

TLE line 0: 0 OBJECT J

TLE line 1: 1 59059U 24039J 25130.79796328 .13625084 26615-5 26243-3 0 9992

TLE line 2: 2 59059 97.3845 107.7803 0009379 225.9562 134.0969 16.46804688 67344

Live tracking on map

Satellite OBJECT J has decayed and is no longer in orbit. No tracking available.

In-orbit conjunctions

Satellite OBJECT J has decayed and is no longer in orbit. No conjunctions available.

Associated space launch

Meteor-M satellites are a new generation of Russian meteorological satellites. Hitchhiking Payloads: SITRO-AIS 13-28, Zorkiy-2M-2, Pars 1 (Iran).

OBJECT J was lifted into orbit during the mission ‘Soyuz 2.1b/Fregat-M | Meteor-M No.2-4 & others’, on board a Soyuz 2.1b/Fregat-M space rocket.

The launch took place on Feb. 29, 2024, 5:43 a.m. from Cosmodrome Site 1S.

For more information about the launch, click the button.

Launch to space Soyuz 2.1b/Fregat-M | Meteor-M No.2-4 & others
Soyuz 2.1b/Fregat-M | Meteor-M No.2-4 & others

Agency: Russian Federal Space Agency (ROSCOSMOS)

Status: Launch Successful

Launch date: Feb. 29, 2024, 5:43 a.m. UTC

Rocket: Soyuz 2.1b/Fregat-M

Launch pad: Cosmodrome Site 1S

Location: Vostochny Cosmodrome, Siberia, Russian Federation

...

Latest news about this satellite

There are no fresh news available about this satellite. Check back as we update our databases every day.


Newsletter sign-up

Weekly statistics, charts and insights to help you stay on top of the space industry.